Overview Statistics Trail Chart Weather Telemetry Raw packets
 

This is the latest recevied weather packets stored in our database for station/object R2AKT-13. If no packets are shown the sender has not sent any weather packets the latest 10 day(s).

<< 29 30 31 32 33 34 35 >>
Time Temp. Humidity Pressure Rain* Wind** Luminosity Snow
1788312461 16.67° C 85% 986.7 hPa - 1.79 m/s, 178° - -
1788311971 16.67° C 85% 986.8 hPa - 2.24 m/s, 189° - -
1788311445 16.67° C 85% 986.8 hPa - 0.89 m/s, 231° - -
1788310851 16.67° C 84% 986.8 hPa - 0.89 m/s, 178° - -
1788310301 17.22° C 84% 986.8 hPa - 1.79 m/s, 208° - -
1788309801 17.22° C 84% 986.9 hPa - 1.79 m/s, 214° - -
1788309291 17.22° C 84% 986.9 hPa - 2.24 m/s, 196° - -
1788308791 17.22° C 84% 987 hPa - 2.68 m/s, 197° - -
1788308205 17.22° C 83% 986.8 hPa - 2.24 m/s, 196° - -
1788307725 17.22° C 82% 986.9 hPa - 1.79 m/s, 206° - -
1788307196 17.22° C 83% 986.9 hPa - 3.13 m/s, 181° - -
1788306681 17.22° C 83% 986.8 hPa - 4.47 m/s, 202° - -
1788306101 17.78° C 81% 986.8 hPa - 4.02 m/s, 192° - -
1788305516 17.78° C 81% 987 hPa - 3.13 m/s, 188° - -
1788304976 17.22° C 82% 987.1 hPa - 2.68 m/s, 200° - -
1788304456 17.78° C 81% 987.1 hPa - 3.58 m/s, 190° - -
1788303856 17.78° C 81% 987.1 hPa - 2.24 m/s, 157° - -
1788303265 17.78° C 81% 987.1 hPa - 3.13 m/s, 188° - -
1788302705 17.22° C 82% 987.2 hPa - 2.68 m/s, 178° - -
1788302211 17.22° C 82% 987.2 hPa - 3.13 m/s, 176° - -
1788301711 17.22° C 82% 987.2 hPa - 2.68 m/s, 189° - -
1788301141 17.22° C 81% 987.2 hPa - 2.68 m/s, 190° - -
1788300561 17.78° C 81% 987.2 hPa - 3.58 m/s, 191° - -
1788300026 17.78° C 80% 987.2 hPa - 4.92 m/s, 179° - -
1788299431 17.78° C 79% 987.1 hPa - 4.02 m/s, 176° - -

* Rain since midnight (hover to see other rain measurements)
** Current wind speed in m/s (hover to see current wind gust speed)